Regional Weather Roundup
Issued by NWS Wakefield, VA

Home | Current Version | Previous Version | Graphics & Text | Print | Product List | Glossary On
Versions: 1 2 3 4 5 6 7 8 9 10 11 12 13 14 15 16 17 18 19 20 21 22 23 24 25 26 27 28 29 30 31 32 33 34 35 36 37 38 39 40 41 42 43 44 45 46 47 48 49 50
000
ASUS41 KAKQ 201110
RWRAKQ

REGIONAL WEATHER ROUNDUP
NATIONAL WEATHER SERVICE WAKEFIELD VA
700 AM EDT SAT SEP 20 2014

Note: "fair" indicates few or no clouds below 12,000 feet with no
significant weather and/or obstructions to visibility. * = Denotes
station may not report precipitation (e.g., rain,snow,etc.),
thunder or fog.

VAZ042-051-052>054-056-201200-
NORTHERN VIRGINIA

CITY           SKY/WX    TMP DP  RH WIND       PRES   REMARKS
WASH NATIONAL  PTCLDY    65  59  81 CALM      30.26S
DULLES         PTCLDY    55  55 100 CALM      30.26S
FORT BELVOIR   CLEAR     59  57  94 CALM      30.26S FOG
QUANTICO       CLEAR     62  59  90 NW8       30.27R
FREDERICKSBRG* PTCLDY    59  59 100 CALM      30.25S
STAFFORD*      PTCLDY    57  57 100 NW5       30.30R FOG
WARRENTON      FOG       56  56 100 CALM      30.26S VSB<1/4
CULPEPER*      FOG       55  54  94 CALM      30.27S VSB 1/4
MANASSAS*      CLOUDY    57  57 100 CALM      30.26F
LEESBURG*      CLOUDY    63  63 100 SW3       30.27S
WINCHESTER     CLEAR     57  54  88 CALM      30.25S
FRONT ROYAL*   SUNNY     59  55  88 CALM      30.24S
LURAY*         MOSUNNY   61  61 100 SW5       30.25S
$$

VAZ048-049-060>072-079>083-201200-
CENTRAL AND SOUTH CENTRAL VIRGINIA...AND NORTH CENTRAL NORTH CAROLINA

CITY           SKY/WX    TMP DP  RH WIND       PRES   REMARKS
RICHMOND       PTCLDY    58  56  93 N7        30.25R
CHESTERFIELD*  MOSUNNY  N/A N/A N/A NW3       30.26R
PETERSBURG*    CLEAR     52  51  96 CALM      30.25R FOG
HANOVER        PTCLDY    55  55 100 CALM      30.27S FOG
TAPPAHANNOCK*  CLEAR     53  51  93 CALM      30.26R FOG
CHARLOTTSVILLE FOG       58  57  97 CALM      30.26S VSB 1/2
ORANGE*        FOG       54  54 100 CALM      30.28S VSB 1/4
LOUISA*        FOG       55  55 100 CALM      30.25S VSB 1
FARMVILLE*     CLOUDY    61  61 100 CALM      30.23F FOG
CREWE*         CLOUDY    58  56  92 CALM      30.25S
FORT PICKETT*  PTSUNNY   58  57  96 N6        30.25R
LUNENBURG*     CLOUDY    59  58  96 N5        30.24S
SOUTH HILL*    CLEAR     59  59 100 N5        30.29R
LAWRENCEVILLE* SUNNY     56  56  98 N3        30.23S
ROANOKE RAPIDS SUNNY     54  54 100 N5        30.21S FOG
RALEIGH        PTCLDY    59  56  89 CALM      30.22R
$$

VAZ088>098-201200-
SOUTHEAST VIRGINIA

CITY           SKY/WX    TMP DP  RH WIND       PRES   REMARKS
NORFOLK        CLEAR     70  63  78 E9        30.20R
VIRGINIA BEACH PTCLDY    71  64  78 E13       30.19S
NORFOLK NAVAL  PTCLDY    72  64  76 E12       30.22R
WEST POINT*    CLEAR     56  54  93 CALM      30.25S
NEWPORT NEWS   CLEAR     62  57  83 N3        30.22R HAZE
LANGLEY AFB    CLEAR     69  67  92 E7        30.21R
FORT EUSTIS    PTCLDY    63 N/A N/A CALM      30.21R HAZE
WILLIAMSBURG*  CLEAR     61  61 100 CALM      30.24R
HR EXEC AP*    SUNNY     52  50  93 CALM      30.22S
FRANKLIN*      CLEAR     55  55 100 CALM      30.22R
WAKEFIELD      CLEAR     57  54  89 CALM      30.23R
$$

VAZ020-022-025-037-045-201200-
WEST CENTRAL AND SOUTHWEST VIRGINIA

CITY           SKY/WX    TMP DP  RH WIND       PRES   REMARKS
STAUNTON*      CLEAR     55  52  89 CALM      30.28S FOG
HOT SPRINGS VA PTCLDY    50  49  93 S9        30.32S FOG
LYNCHBURG      CLOUDY    60  59  96 CALM      30.27S
DANVILLE       CLEAR     57  54  89 CALM      30.25R FOG
SOUTH BOSTON*  NOT AVBL
MARTINSVILLE   PTCLDY    59  59 100 CALM      30.28R FOG
ROANOKE        MOCLDY    60  57  89 CALM      30.28S
BLACKSBURG     CLOUDY    59  59 100 CALM      30.30R FOG
DUBLIN*        CLOUDY    59  59 100 CALM      30.29S FOG
MARION*        CLOUDY    61  57  86 NE7       30.29S
HILLSVILLE*    PTCLDY    56  55  97 CALM      30.29R
RICHLANDS*     SUNNY     62  56  81 SE5       30.24S
WISE*          CLEAR     59  52  77 S7        30.24R
ABINGDON*      CLEAR     60  57  90 CALM      30.23S
$$

MDZ021>025-VAZ099-100-201200-
SOUTHERN MARYLAND AND THE DELMARVA PENINSULA

CITY           SKY/WX    TMP DP  RH WIND       PRES   REMARKS
PATUXENT RIVER PTCLDY    62  59  90 NE5       30.25R
BAY BRIDGE APT   N/A     61  59  94 SE3       30.26S
LEONARDTOWN    CLEAR     57  55  94 CALM      30.27S
DOVER          CLEAR     63  60  90 SE5       30.24F
GEORGETOWN     PTCLDY    56  53  90 VRB3      30.27S
EASTON         PTCLDY    59  59 100 CALM      30.30S
CAMBRIDGE      CLEAR     57  54  88 CALM      30.26R
SALISBURY      PTCLDY    58  55  90 N3        30.25S FOG
OCEAN CITY     CLOUDY    71  62  73 SE12G20   30.24S
WALLOPS ISLAND CLEAR     70  63  78 E9        30.24S
ACCOMACK*      PTCLDY    61  57  88 E5        30.22S
$$

NCZ012>017-030>032-201200-
EASTERN NORTH CAROLINA

CITY           SKY/WX    TMP DP  RH WIND       PRES   REMARKS
ELIZABETH CITY PTCLDY    69  65  86 NE10      30.18S
AHOSKIE*       CLEAR     55  53  94 CALM      30.20S
EDENTON*       PTCLDY    60  58  96 CALM      30.18S
CURRITUCK*     PTCLDY    71  64  79 NE8       30.19S
KILL DEVIL HLS CLOUDY    72  68  89 NE7G16    30.15F
MANTEO         CLOUDY    71  68  90 NE13G20   30.16S
CAPE HATTERAS  CLOUDY    70  69  97 NE10G21   30.11F
TARBORO*       MOSUNNY   59  56  92 CALM      30.19F
GOLDSBORO      PTCLDY    62  61  98 CALM      30.16S
WASHINGTON     CLOUDY    62  60  93 N6        30.17S
GREENVILLE     PTCLDY    61  59  94 N5        30.18F
NEW BERN       CLOUDY    67  62  84 N7        30.15F
WILMINGTON     CLOUDY    65  61  87 NE12      30.11R
$$

VAZ048-201200-
ELSEWHERE

CITY           SKY/WX    TMP DP  RH WIND       PRES   REMARKS
HARRISBURG PA  CLOUDY    60  55  83 SE6       30.26F
BALTIMORE      PTCLDY    61  58  90 CALM      30.26S FOG
ANNAPOLIS      PTCLDY    68  62  81 E7        30.26R
ANDREWS AFB    CLEAR     59  59 100 NW3       30.26S FOG
WILMINGTON DE  CLOUDY    60  57  89 E5        30.29S
PHILADELPHIA   MOCLDY    58  54  86 E6        30.29F
WILDWOOD NJ*   MOCLDY    63  55  77 CALM      30.28S
ATLANTIC CITY  CLEAR     55  54  96 CALM      30.28F
HENDERSON NC   CLEAR     58  56  94 N5        30.24R
GREENSBORO     PTCLDY    58  58 100 N5        30.23R FOG
ROCKY MOUNT    PTCLDY    58  56  93 N6        30.20R
FAYETTEVILLE   MOCLDY    61  59  93 N8        30.16S
CHARLOTTE      PTCLDY    60  57  89 N3        30.21R
$$

VAZ100-201200-
MARINE

STATION/POSITION TIME  TEMP    WIND        PRES    WAVE   SWELL
                       AIR SEA DIR/SP/G            HT/PER HT/PER
                 (UTC) (F)     (DEG/KT/KT) (MB)    (FT/S) (FT/S)
44066 TX TWR #4  1100   67 72  110/ 12/ 16 1026.3R   4/ 6   3/ 6
CAPE MAY NJ      1100   67 74   70/  1/  2 1024.6R
LEWES DE         1100   69 71  120/  6/  7 1024.3S
15NM E FENWICK I 1100   71 71              1023.6S   5/ 7
OCEAN-CITY-INLET 1100   71 71  130/ 10/ 15 1023.8R
WACHAPREAGUE VA  1100   71 73   90/ 12/ 15 1023.4S
THOMAS POINT MD  1100   67 73  130/ 10/ 11 1025.4F
GOOSES REEF MD   1100   68     120/  6/  8 1024.9S
COVE POINT MD    1100   66      90/  6/  8 1024.3F
SOLOMONS ISLAND  1100      75                N/A
BISHOPS HEAD MD  1100   64 70  360/  4/  8 1023.9R
PINEY POINT MD   1100           40/  5/  6   N/A
POTOMAC MD       1100   70     100/  8/ 10 1023.3S
CAMBRIDGE MD     1100   64 74   90/  6/  7 1024.3F
LEWISETTA VA     1100   66 73  270/  2/  3 1023.7R
RAPPAHANNOCK LGT 1100           70/  9/ 10 1023.7S
STINGRAY PT      1100   71     100/ 12/ 14   N/A
YORK RVR RNG VA  1100   72      90/ 10/ 12 1022.7S
YORKTOWN VA      1100   72 76   80/ 10/ 12 1022.9F
JAMESTOWN VA     1100   62      60/  6/  8   N/A
DOMINION TERM VA 1100   72      80/ 13/ 17 1022.9R
KIPTOPEKE VA     1100      78  100/  8/ 12   N/A
CHES BAY BRIDGE  1100   72 75   70/ 19/ 22 1022.0R
CAPE HENRY VA    1100   72      70/ 21/ 23 1021.2S
CHESAPEAKE LGHT  1000   71      70/ 20/ 22 1023.0R
WILLOUBY STN VA  1100   72      90/ 15/ 17 1021.3R
S CRANEY ISL VA  1100           40/ 10/ 12 1022.2S
CAPE HENRY BUOY  1100      75                N/A     6/ 6   2/11
1ST LANDING BUOY 1100   73      80/ 19/ 21 1022.1S
CAPE CHARLES BUO 1100      74                N/A     5/ 5   2/ 8
OFFSHORE WE BUOY 1100      74                N/A     7/ 7   3/ 9
64NM E OF VA BCH 1100   74 76   50/ 17/ 19 1021.0F   7/ 7
DUCK PIER NC     1100   72 74   60/ 20/ 22 1021.2R
44100 DUCK FRF   1100      74                N/A     6/ 6   2/11
44056 DUCK FRF   1100                        N/A     5/ 6
OREGON INLET NC  1100   72 73   20/ 13/ 18 1020.6S
HATTERAS NC      1100   73 73   30/ 12/ 17 1020.1S
DIAMOND SHLS NC  1100   79      60/ 17/ 21 1018.6S   6/ 6   3/ 8
CAPE LOOKOUT NC  1000   72      20/ 18/ 22 1019.0F
$$



USA.gov is the U.S. government's official web portal to all federal, state and local government web resources and services.